Index of /20260504/WXO-DD/model_caps/3km/12/048
Name Last modified Size Description
Parent Directory -
20260504T12Z_MSC_CAPS_AbsoluteVorticity_IsbL-0250_RLatLon0.03_PT048H.grib2 2026-05-04 18:25 1.0M
20260504T12Z_MSC_CAPS_AbsoluteVorticity_IsbL-0500_RLatLon0.03_PT048H.grib2 2026-05-04 18:25 1.1M
20260504T12Z_MSC_CAPS_AbsoluteVorticity_IsbL-0700_RLatLon0.03_PT048H.grib2 2026-05-04 18:25 1.3M
20260504T12Z_MSC_CAPS_AbsoluteVorticity_IsbL-0850_RLatLon0.03_PT048H.grib2 2026-05-04 18:25 1.3M
20260504T12Z_MSC_CAPS_AbsoluteVorticity_IsbL-1000_RLatLon0.03_PT048H.grib2 2026-05-04 18:25 1.4M
20260504T12Z_MSC_CAPS_AirDensity_AGL-120m_RLatLon0.03_PT048H.grib2 2026-05-04 18:25 1.4M
20260504T12Z_MSC_CAPS_AirDensity_AGL-40m_RLatLon0.03_PT048H.grib2 2026-05-04 18:25 1.4M
20260504T12Z_MSC_CAPS_AirDensity_AGL-80m_RLatLon0.03_PT048H.grib2 2026-05-04 18:25 1.4M
20260504T12Z_MSC_CAPS_AirTemp_AGL-120m_RLatLon0.03_PT048H.grib2 2026-05-04 18:25 1.4M
20260504T12Z_MSC_CAPS_AirTemp_AGL-2m_RLatLon0.03_PT048H.grib2 2026-05-04 18:25 1.7M
20260504T12Z_MSC_CAPS_AirTemp_AGL-40m_RLatLon0.03_PT048H.grib2 2026-05-04 18:25 1.5M
20260504T12Z_MSC_CAPS_AirTemp_AGL-80m_RLatLon0.03_PT048H.grib2 2026-05-04 18:25 1.5M
20260504T12Z_MSC_CAPS_AirTemp_IsbL-0050_RLatLon0.03_PT048H.grib2 2026-05-04 18:25 691K
20260504T12Z_MSC_CAPS_AirTemp_IsbL-0100_RLatLon0.03_PT048H.grib2 2026-05-04 18:25 954K
20260504T12Z_MSC_CAPS_AirTemp_IsbL-0150_RLatLon0.03_PT048H.grib2 2026-05-04 18:25 752K
20260504T12Z_MSC_CAPS_AirTemp_IsbL-0175_RLatLon0.03_PT048H.grib2 2026-05-04 18:25 782K
20260504T12Z_MSC_CAPS_AirTemp_IsbL-0200_RLatLon0.03_PT048H.grib2 2026-05-04 18:25 805K
20260504T12Z_MSC_CAPS_AirTemp_IsbL-0225_RLatLon0.03_PT048H.grib2 2026-05-04 18:25 802K
20260504T12Z_MSC_CAPS_AirTemp_IsbL-0250_RLatLon0.03_PT048H.grib2 2026-05-04 18:25 1.0M
20260504T12Z_MSC_CAPS_AirTemp_IsbL-0275_RLatLon0.03_PT048H.grib2 2026-05-04 18:25 1.0M
20260504T12Z_MSC_CAPS_AirTemp_IsbL-0300_RLatLon0.03_PT048H.grib2 2026-05-04 18:25 1.0M
20260504T12Z_MSC_CAPS_AirTemp_IsbL-0350_RLatLon0.03_PT048H.grib2 2026-05-04 18:25 761K
20260504T12Z_MSC_CAPS_AirTemp_IsbL-0400_RLatLon0.03_PT048H.grib2 2026-05-04 18:25 766K
20260504T12Z_MSC_CAPS_AirTemp_IsbL-0450_RLatLon0.03_PT048H.grib2 2026-05-04 18:25 784K
20260504T12Z_MSC_CAPS_AirTemp_IsbL-0500_RLatLon0.03_PT048H.grib2 2026-05-04 18:25 795K
20260504T12Z_MSC_CAPS_AirTemp_IsbL-0550_RLatLon0.03_PT048H.grib2 2026-05-04 18:25 807K
20260504T12Z_MSC_CAPS_AirTemp_IsbL-0600_RLatLon0.03_PT048H.grib2 2026-05-04 18:25 828K
20260504T12Z_MSC_CAPS_AirTemp_IsbL-0650_RLatLon0.03_PT048H.grib2 2026-05-04 18:25 862K
20260504T12Z_MSC_CAPS_AirTemp_IsbL-0700_RLatLon0.03_PT048H.grib2 2026-05-04 18:25 903K
20260504T12Z_MSC_CAPS_AirTemp_IsbL-0750_RLatLon0.03_PT048H.grib2 2026-05-04 18:25 1.1M
20260504T12Z_MSC_CAPS_AirTemp_IsbL-0800_RLatLon0.03_PT048H.grib2 2026-05-04 18:25 1.1M
20260504T12Z_MSC_CAPS_AirTemp_IsbL-0850_RLatLon0.03_PT048H.grib2 2026-05-04 18:25 1.1M
20260504T12Z_MSC_CAPS_AirTemp_IsbL-0875_RLatLon0.03_PT048H.grib2 2026-05-04 18:25 1.1M
20260504T12Z_MSC_CAPS_AirTemp_IsbL-0900_RLatLon0.03_PT048H.grib2 2026-05-04 18:25 1.1M
20260504T12Z_MSC_CAPS_AirTemp_IsbL-0925_RLatLon0.03_PT048H.grib2 2026-05-04 18:25 1.2M
20260504T12Z_MSC_CAPS_AirTemp_IsbL-0950_RLatLon0.03_PT048H.grib2 2026-05-04 18:25 1.1M
20260504T12Z_MSC_CAPS_AirTemp_IsbL-0970_RLatLon0.03_PT048H.grib2 2026-05-04 18:25 1.1M
20260504T12Z_MSC_CAPS_AirTemp_IsbL-0985_RLatLon0.03_PT048H.grib2 2026-05-04 18:25 1.1M
20260504T12Z_MSC_CAPS_AirTemp_IsbL-1000_RLatLon0.03_PT048H.grib2 2026-05-04 18:25 1.0M
20260504T12Z_MSC_CAPS_AirTemp_IsbL-1015_RLatLon0.03_PT048H.grib2 2026-05-04 18:25 844K
20260504T12Z_MSC_CAPS_Albedo_Sfc_RLatLon0.03_PT048H.grib2 2026-05-04 18:25 2.7M
20260504T12Z_MSC_CAPS_CAPE_Sfc_RLatLon0.03_PT048H.grib2 2026-05-04 18:25 246K
20260504T12Z_MSC_CAPS_CloudWater_EAtm_RLatLon0.03_PT048H.grib2 2026-05-04 18:25 1.6M
20260504T12Z_MSC_CAPS_ConvectivePrecip-Accum_Sfc_RLatLon0.03_PT048H.grib2 2026-05-04 18:25 5.2M
20260504T12Z_MSC_CAPS_DewPointDepression_AGL-120m_RLatLon0.03_PT048H.grib2 2026-05-04 18:25 2.2M
20260504T12Z_MSC_CAPS_DewPointDepression_AGL-2m_RLatLon0.03_PT048H.grib2 2026-05-04 18:25 2.2M
20260504T12Z_MSC_CAPS_DewPointDepression_AGL-40m_RLatLon0.03_PT048H.grib2 2026-05-04 18:25 2.2M
20260504T12Z_MSC_CAPS_DewPointDepression_AGL-80m_RLatLon0.03_PT048H.grib2 2026-05-04 18:25 2.2M
20260504T12Z_MSC_CAPS_DewPointDepression_IsbL-0050_RLatLon0.03_PT048H.grib2 2026-05-04 18:25 3.4K
20260504T12Z_MSC_CAPS_DewPointDepression_IsbL-0100_RLatLon0.03_PT048H.grib2 2026-05-04 18:25 61K
20260504T12Z_MSC_CAPS_DewPointDepression_IsbL-0150_RLatLon0.03_PT048H.grib2 2026-05-04 18:25 58K
20260504T12Z_MSC_CAPS_DewPointDepression_IsbL-0175_RLatLon0.03_PT048H.grib2 2026-05-04 18:25 246K
20260504T12Z_MSC_CAPS_DewPointDepression_IsbL-0200_RLatLon0.03_PT048H.grib2 2026-05-04 18:25 421K
20260504T12Z_MSC_CAPS_DewPointDepression_IsbL-0225_RLatLon0.03_PT048H.grib2 2026-05-04 18:25 624K
20260504T12Z_MSC_CAPS_DewPointDepression_IsbL-0250_RLatLon0.03_PT048H.grib2 2026-05-04 18:25 866K
20260504T12Z_MSC_CAPS_DewPointDepression_IsbL-0275_RLatLon0.03_PT048H.grib2 2026-05-04 18:25 1.0M
20260504T12Z_MSC_CAPS_DewPointDepression_IsbL-0300_RLatLon0.03_PT048H.grib2 2026-05-04 18:25 1.1M
20260504T12Z_MSC_CAPS_DewPointDepression_IsbL-0350_RLatLon0.03_PT048H.grib2 2026-05-04 18:25 1.1M
20260504T12Z_MSC_CAPS_DewPointDepression_IsbL-0400_RLatLon0.03_PT048H.grib2 2026-05-04 18:25 1.2M
20260504T12Z_MSC_CAPS_DewPointDepression_IsbL-0450_RLatLon0.03_PT048H.grib2 2026-05-04 18:25 1.2M
20260504T12Z_MSC_CAPS_DewPointDepression_IsbL-0500_RLatLon0.03_PT048H.grib2 2026-05-04 18:25 1.2M
20260504T12Z_MSC_CAPS_DewPointDepression_IsbL-0550_RLatLon0.03_PT048H.grib2 2026-05-04 18:25 1.3M
20260504T12Z_MSC_CAPS_DewPointDepression_IsbL-0600_RLatLon0.03_PT048H.grib2 2026-05-04 18:25 1.3M
20260504T12Z_MSC_CAPS_DewPointDepression_IsbL-0650_RLatLon0.03_PT048H.grib2 2026-05-04 18:25 1.3M
20260504T12Z_MSC_CAPS_DewPointDepression_IsbL-0700_RLatLon0.03_PT048H.grib2 2026-05-04 18:25 1.4M
20260504T12Z_MSC_CAPS_DewPointDepression_IsbL-0750_RLatLon0.03_PT048H.grib2 2026-05-04 18:25 1.4M
20260504T12Z_MSC_CAPS_DewPointDepression_IsbL-0800_RLatLon0.03_PT048H.grib2 2026-05-04 18:25 1.4M
20260504T12Z_MSC_CAPS_DewPointDepression_IsbL-0850_RLatLon0.03_PT048H.grib2 2026-05-04 18:25 1.4M
20260504T12Z_MSC_CAPS_DewPointDepression_IsbL-0875_RLatLon0.03_PT048H.grib2 2026-05-04 18:25 1.4M
20260504T12Z_MSC_CAPS_DewPointDepression_IsbL-0900_RLatLon0.03_PT048H.grib2 2026-05-04 18:25 1.4M
20260504T12Z_MSC_CAPS_DewPointDepression_IsbL-0925_RLatLon0.03_PT048H.grib2 2026-05-04 18:25 1.4M
20260504T12Z_MSC_CAPS_DewPointDepression_IsbL-0950_RLatLon0.03_PT048H.grib2 2026-05-04 18:25 1.4M
20260504T12Z_MSC_CAPS_DewPointDepression_IsbL-0970_RLatLon0.03_PT048H.grib2 2026-05-04 18:25 1.4M
20260504T12Z_MSC_CAPS_DewPointDepression_IsbL-0985_RLatLon0.03_PT048H.grib2 2026-05-04 18:25 1.4M
20260504T12Z_MSC_CAPS_DewPointDepression_IsbL-1000_RLatLon0.03_PT048H.grib2 2026-05-04 18:25 1.4M
20260504T12Z_MSC_CAPS_DewPointDepression_IsbL-1015_RLatLon0.03_PT048H.grib2 2026-05-04 18:25 1.4M
20260504T12Z_MSC_CAPS_DewPoint_AGL-120m_RLatLon0.03_PT048H.grib2 2026-05-04 18:25 3.7M
20260504T12Z_MSC_CAPS_DewPoint_AGL-2m_RLatLon0.03_PT048H.grib2 2026-05-04 18:25 1.8M
20260504T12Z_MSC_CAPS_DewPoint_AGL-40m_RLatLon0.03_PT048H.grib2 2026-05-04 18:25 3.8M
20260504T12Z_MSC_CAPS_DewPoint_AGL-80m_RLatLon0.03_PT048H.grib2 2026-05-04 18:25 3.8M
20260504T12Z_MSC_CAPS_DownwardLongwaveRadiationFlux-Accum_Sfc_RLatLon0.03_PT048H.grib2 2026-05-04 18:25 2.2M
20260504T12Z_MSC_CAPS_DownwardShortwaveRadiationFlux-Accum_NTAtm_RLatLon0.03_PT048H.grib2 2026-05-04 18:25 545K
20260504T12Z_MSC_CAPS_DownwardShortwaveRadiationFlux-Accum_Sfc_RLatLon0.03_PT048H.grib2 2026-05-04 18:25 3.1M
20260504T12Z_MSC_CAPS_FreezingRain-Accum_Sfc_RLatLon0.03_PT048H.grib2 2026-05-04 18:25 1.1M
20260504T12Z_MSC_CAPS_GeopotentialHeight_IsbL-0050_RLatLon0.03_PT048H.grib2 2026-05-04 18:25 826K
20260504T12Z_MSC_CAPS_GeopotentialHeight_IsbL-0100_RLatLon0.03_PT048H.grib2 2026-05-04 18:25 813K
20260504T12Z_MSC_CAPS_GeopotentialHeight_IsbL-0150_RLatLon0.03_PT048H.grib2 2026-05-04 18:25 603K
20260504T12Z_MSC_CAPS_GeopotentialHeight_IsbL-0175_RLatLon0.03_PT048H.grib2 2026-05-04 18:25 717K
20260504T12Z_MSC_CAPS_GeopotentialHeight_IsbL-0200_RLatLon0.03_PT048H.grib2 2026-05-04 18:25 738K
20260504T12Z_MSC_CAPS_GeopotentialHeight_IsbL-0225_RLatLon0.03_PT048H.grib2 2026-05-04 18:25 757K
20260504T12Z_MSC_CAPS_GeopotentialHeight_IsbL-0250_RLatLon0.03_PT048H.grib2 2026-05-04 18:25 769K
20260504T12Z_MSC_CAPS_GeopotentialHeight_IsbL-0275_RLatLon0.03_PT048H.grib2 2026-05-04 18:25 778K
20260504T12Z_MSC_CAPS_GeopotentialHeight_IsbL-0300_RLatLon0.03_PT048H.grib2 2026-05-04 18:25 786K
20260504T12Z_MSC_CAPS_GeopotentialHeight_IsbL-0350_RLatLon0.03_PT048H.grib2 2026-05-04 18:25 786K
20260504T12Z_MSC_CAPS_GeopotentialHeight_IsbL-0400_RLatLon0.03_PT048H.grib2 2026-05-04 18:25 779K
20260504T12Z_MSC_CAPS_GeopotentialHeight_IsbL-0450_RLatLon0.03_PT048H.grib2 2026-05-04 18:25 772K
20260504T12Z_MSC_CAPS_GeopotentialHeight_IsbL-0500_RLatLon0.03_PT048H.grib2 2026-05-04 18:25 766K
20260504T12Z_MSC_CAPS_GeopotentialHeight_IsbL-0550_RLatLon0.03_PT048H.grib2 2026-05-04 18:25 646K
20260504T12Z_MSC_CAPS_GeopotentialHeight_IsbL-0600_RLatLon0.03_PT048H.grib2 2026-05-04 18:25 642K
20260504T12Z_MSC_CAPS_GeopotentialHeight_IsbL-0650_RLatLon0.03_PT048H.grib2 2026-05-04 18:25 815K
20260504T12Z_MSC_CAPS_GeopotentialHeight_IsbL-0700_RLatLon0.03_PT048H.grib2 2026-05-04 18:25 814K
20260504T12Z_MSC_CAPS_GeopotentialHeight_IsbL-0750_RLatLon0.03_PT048H.grib2 2026-05-04 18:25 816K
20260504T12Z_MSC_CAPS_GeopotentialHeight_IsbL-0800_RLatLon0.03_PT048H.grib2 2026-05-04 18:25 901K
20260504T12Z_MSC_CAPS_GeopotentialHeight_IsbL-0850_RLatLon0.03_PT048H.grib2 2026-05-04 18:25 831K
20260504T12Z_MSC_CAPS_GeopotentialHeight_IsbL-0875_RLatLon0.03_PT048H.grib2 2026-05-04 18:25 838K
20260504T12Z_MSC_CAPS_GeopotentialHeight_IsbL-0900_RLatLon0.03_PT048H.grib2 2026-05-04 18:25 845K
20260504T12Z_MSC_CAPS_GeopotentialHeight_IsbL-0925_RLatLon0.03_PT048H.grib2 2026-05-04 18:25 855K
20260504T12Z_MSC_CAPS_GeopotentialHeight_IsbL-0950_RLatLon0.03_PT048H.grib2 2026-05-04 18:25 858K
20260504T12Z_MSC_CAPS_GeopotentialHeight_IsbL-0970_RLatLon0.03_PT048H.grib2 2026-05-04 18:25 876K
20260504T12Z_MSC_CAPS_GeopotentialHeight_IsbL-0985_RLatLon0.03_PT048H.grib2 2026-05-04 18:25 885K
20260504T12Z_MSC_CAPS_GeopotentialHeight_IsbL-1000_RLatLon0.03_PT048H.grib2 2026-05-04 18:25 894K
20260504T12Z_MSC_CAPS_GeopotentialHeight_IsbL-1015_RLatLon0.03_PT048H.grib2 2026-05-04 18:25 904K
20260504T12Z_MSC_CAPS_GeopotentialHeight_Sfc_RLatLon0.03_PT048H.grib2 2026-05-04 18:25 1.0M
20260504T12Z_MSC_CAPS_IcePellets-Accum_Sfc_RLatLon0.03_PT048H.grib2 2026-05-04 18:25 134K
20260504T12Z_MSC_CAPS_LatentHeatNetFlux_Sfc_RLatLon0.03_PT048H.grib2 2026-05-04 18:25 1.5M
20260504T12Z_MSC_CAPS_LiftedIndex-MU-VT_IsbL-0500_RLatLon0.03_PT048H.grib2 2026-05-04 18:25 3.3M
20260504T12Z_MSC_CAPS_MixedLayerThickness_Sfc_RLatLon0.03_PT048H.nc 2026-05-04 18:14 16M
20260504T12Z_MSC_CAPS_NetLongwaveRadiationFlux-Accum_Sfc_RLatLon0.03_PT048H.grib2 2026-05-04 18:25 3.0M
20260504T12Z_MSC_CAPS_NetShortwaveRadiationFlux-Accum_Sfc_RLatLon0.03_PT048H.grib2 2026-05-04 18:25 3.0M
20260504T12Z_MSC_CAPS_PlanetaryBoundaryLayerHeight_Sfc_RLatLon0.03_PT048H.grib2 2026-05-04 18:25 2.6M
20260504T12Z_MSC_CAPS_Precip-Accum_Sfc_RLatLon0.03_PT048H.grib2 2026-05-04 18:25 5.8M
20260504T12Z_MSC_CAPS_PrecipRate_Sfc_RLatLon0.03_PT048H.grib2 2026-05-04 18:25 397K
20260504T12Z_MSC_CAPS_PrecipType-Instant_Sfc_RLatLon0.03_PT048H.grib2 2026-05-04 18:25 2.2M
20260504T12Z_MSC_CAPS_Pressure_MSL_RLatLon0.03_PT048H.grib2 2026-05-04 18:25 927K
20260504T12Z_MSC_CAPS_Pressure_Sfc_RLatLon0.03_PT048H.grib2 2026-05-04 18:25 1.2M
20260504T12Z_MSC_CAPS_RadiativeTemp_Sfc_RLatLon0.03_PT048H.grib2 2026-05-04 18:25 2.1M
20260504T12Z_MSC_CAPS_Rain-Accum_Sfc_RLatLon0.03_PT048H.grib2 2026-05-04 18:25 3.1M
20260504T12Z_MSC_CAPS_RelativeHumidity_AGL-120m_RLatLon0.03_PT048H.grib2 2026-05-04 18:25 2.9M
20260504T12Z_MSC_CAPS_RelativeHumidity_AGL-2m_RLatLon0.03_PT048H.grib2 2026-05-04 18:25 3.0M
20260504T12Z_MSC_CAPS_RelativeHumidity_AGL-40m_RLatLon0.03_PT048H.grib2 2026-05-04 18:25 3.0M
20260504T12Z_MSC_CAPS_RelativeHumidity_AGL-80m_RLatLon0.03_PT048H.grib2 2026-05-04 18:25 2.9M
20260504T12Z_MSC_CAPS_RelativeHumidity_IsbL-0050_RLatLon0.03_PT048H.grib2 2026-05-04 18:25 1.0M
20260504T12Z_MSC_CAPS_RelativeHumidity_IsbL-0100_RLatLon0.03_PT048H.grib2 2026-05-04 18:25 879K
20260504T12Z_MSC_CAPS_RelativeHumidity_IsbL-0150_RLatLon0.03_PT048H.grib2 2026-05-04 18:25 745K
20260504T12Z_MSC_CAPS_RelativeHumidity_IsbL-0175_RLatLon0.03_PT048H.grib2 2026-05-04 18:25 496K
20260504T12Z_MSC_CAPS_RelativeHumidity_IsbL-0200_RLatLon0.03_PT048H.grib2 2026-05-04 18:25 679K
20260504T12Z_MSC_CAPS_RelativeHumidity_IsbL-0225_RLatLon0.03_PT048H.grib2 2026-05-04 18:25 909K
20260504T12Z_MSC_CAPS_RelativeHumidity_IsbL-0250_RLatLon0.03_PT048H.grib2 2026-05-04 18:25 1.1M
20260504T12Z_MSC_CAPS_RelativeHumidity_IsbL-0275_RLatLon0.03_PT048H.grib2 2026-05-04 18:25 1.4M
20260504T12Z_MSC_CAPS_RelativeHumidity_IsbL-0300_RLatLon0.03_PT048H.grib2 2026-05-04 18:25 1.5M
20260504T12Z_MSC_CAPS_RelativeHumidity_IsbL-0350_RLatLon0.03_PT048H.grib2 2026-05-04 18:25 2.0M
20260504T12Z_MSC_CAPS_RelativeHumidity_IsbL-0400_RLatLon0.03_PT048H.grib2 2026-05-04 18:25 1.9M
20260504T12Z_MSC_CAPS_RelativeHumidity_IsbL-0450_RLatLon0.03_PT048H.grib2 2026-05-04 18:25 2.0M
20260504T12Z_MSC_CAPS_RelativeHumidity_IsbL-0500_RLatLon0.03_PT048H.grib2 2026-05-04 18:25 2.2M
20260504T12Z_MSC_CAPS_RelativeHumidity_IsbL-0550_RLatLon0.03_PT048H.grib2 2026-05-04 18:25 2.2M
20260504T12Z_MSC_CAPS_RelativeHumidity_IsbL-0600_RLatLon0.03_PT048H.grib2 2026-05-04 18:25 2.1M
20260504T12Z_MSC_CAPS_RelativeHumidity_IsbL-0650_RLatLon0.03_PT048H.grib2 2026-05-04 18:25 2.3M
20260504T12Z_MSC_CAPS_RelativeHumidity_IsbL-0700_RLatLon0.03_PT048H.grib2 2026-05-04 18:25 2.4M
20260504T12Z_MSC_CAPS_RelativeHumidity_IsbL-0750_RLatLon0.03_PT048H.grib2 2026-05-04 18:25 2.4M
20260504T12Z_MSC_CAPS_RelativeHumidity_IsbL-0800_RLatLon0.03_PT048H.grib2 2026-05-04 18:25 2.6M
20260504T12Z_MSC_CAPS_RelativeHumidity_IsbL-0850_RLatLon0.03_PT048H.grib2 2026-05-04 18:25 2.7M
20260504T12Z_MSC_CAPS_RelativeHumidity_IsbL-0875_RLatLon0.03_PT048H.grib2 2026-05-04 18:25 2.7M
20260504T12Z_MSC_CAPS_RelativeHumidity_IsbL-0900_RLatLon0.03_PT048H.grib2 2026-05-04 18:25 2.7M
20260504T12Z_MSC_CAPS_RelativeHumidity_IsbL-0925_RLatLon0.03_PT048H.grib2 2026-05-04 18:25 2.7M
20260504T12Z_MSC_CAPS_RelativeHumidity_IsbL-0950_RLatLon0.03_PT048H.grib2 2026-05-04 18:25 2.8M
20260504T12Z_MSC_CAPS_RelativeHumidity_IsbL-0970_RLatLon0.03_PT048H.grib2 2026-05-04 18:25 2.9M
20260504T12Z_MSC_CAPS_RelativeHumidity_IsbL-0985_RLatLon0.03_PT048H.grib2 2026-05-04 18:25 3.0M
20260504T12Z_MSC_CAPS_RelativeHumidity_IsbL-1000_RLatLon0.03_PT048H.grib2 2026-05-04 18:25 3.0M
20260504T12Z_MSC_CAPS_RelativeHumidity_IsbL-1015_RLatLon0.03_PT048H.grib2 2026-05-04 18:25 3.0M
20260504T12Z_MSC_CAPS_Runoff-Accum_Sfc_RLatLon0.03_PT048H.grib2 2026-05-04 18:25 362K
20260504T12Z_MSC_CAPS_SeaIceAreaFraction_Sfc_RLatLon0.03_PT048H.nc 2026-05-04 18:14 15M
20260504T12Z_MSC_CAPS_SeaIceCompressiveStrength_Sfc_RLatLon0.03_PT048H.nc 2026-05-04 18:14 15M
20260504T12Z_MSC_CAPS_SeaIceDivergence_Sfc_RLatLon0.03_PT048H.nc 2026-05-04 18:14 15M
20260504T12Z_MSC_CAPS_SeaIceInternalPressure_Sfc_RLatLon0.03_PT048H.nc 2026-05-04 18:14 15M
20260504T12Z_MSC_CAPS_SeaIceShear_Sfc_RLatLon0.03_PT048H.nc 2026-05-04 18:14 14M
20260504T12Z_MSC_CAPS_SeaIceSnowTemp_Sfc_RLatLon0.03_PT048H.nc 2026-05-04 18:14 14M
20260504T12Z_MSC_CAPS_SeaIceSnowVolume_Sfc_RLatLon0.03_PT048H.nc 2026-05-04 18:14 15M
20260504T12Z_MSC_CAPS_SeaIceVelocityX_Sfc_RLatLon0.03_PT048H.nc 2026-05-04 18:14 15M
20260504T12Z_MSC_CAPS_SeaIceVelocityY_Sfc_RLatLon0.03_PT048H.nc 2026-05-04 18:14 15M
20260504T12Z_MSC_CAPS_SeaIceVolume_Sfc_RLatLon0.03_PT048H.nc 2026-05-04 18:14 15M
20260504T12Z_MSC_CAPS_SeaSurfaceHeight_Sfc_RLatLon0.03_PT048H.nc 2026-05-04 18:14 16M
20260504T12Z_MSC_CAPS_SeaWaterSalinity_DBS-0.5m_RLatLon0.03_PT048H.nc 2026-05-04 18:14 16M
20260504T12Z_MSC_CAPS_SeaWaterSalinity_DBS-all_RLatLon0.03_PT048H.nc 2026-05-04 18:14 107M
20260504T12Z_MSC_CAPS_SeaWaterTemp_DBS-0.5m_RLatLon0.03_PT048H.nc 2026-05-04 18:14 15M
20260504T12Z_MSC_CAPS_SeaWaterTemp_DBS-all_RLatLon0.03_PT048H.nc 2026-05-04 18:14 88M
20260504T12Z_MSC_CAPS_SeaWaterVelocityX_DBS-0.5m_RLatLon0.03_PT048H.nc 2026-05-04 18:14 17M
20260504T12Z_MSC_CAPS_SeaWaterVelocityX_DBS-all_RLatLon0.03_PT048H.nc 2026-05-04 18:14 209M
20260504T12Z_MSC_CAPS_SeaWaterVelocityY_DBS-0.5m_RLatLon0.03_PT048H.nc 2026-05-04 18:14 18M
20260504T12Z_MSC_CAPS_SeaWaterVelocityY_DBS-all_RLatLon0.03_PT048H.nc 2026-05-04 18:14 217M
20260504T12Z_MSC_CAPS_SensibleHeatNetFlux_Sfc_RLatLon0.03_PT048H.grib2 2026-05-04 18:25 2.1M
20260504T12Z_MSC_CAPS_ShowalterIndex_IsbL-0500_RLatLon0.03_PT048H.grib2 2026-05-04 18:25 4.3M
20260504T12Z_MSC_CAPS_Snow-Accum_Sfc_RLatLon0.03_PT048H.grib2 2026-05-04 18:25 4.6M
20260504T12Z_MSC_CAPS_SnowDensity_Sfc_RLatLon0.03_PT048H.grib2 2026-05-04 18:25 1.3M
20260504T12Z_MSC_CAPS_SnowDepthWaterEquivalent_Sfc_RLatLon0.03_PT048H.grib2 2026-05-04 18:25 660K
20260504T12Z_MSC_CAPS_SnowDepth_Sfc_RLatLon0.03_PT048H.grib2 2026-05-04 18:25 1.1M
20260504T12Z_MSC_CAPS_SoilTemp_DBS-0to10cm_RLatLon0.03_PT048H.grib2 2026-05-04 18:25 1.7M
20260504T12Z_MSC_CAPS_SoilTemp_Sfc_RLatLon0.03_PT048H.grib2 2026-05-04 18:25 1.8M
20260504T12Z_MSC_CAPS_SoilVolumetricIceContent_Sfc_RLatLon0.03_PT048H.grib2 2026-05-04 18:25 1.4M
20260504T12Z_MSC_CAPS_SoilVolumetricWaterContent_DBS-0to10cm_RLatLon0.03_PT048H.grib2 2026-05-04 18:25 1.3M
20260504T12Z_MSC_CAPS_SoilVolumetricWaterContent_DBS-0to1cm_RLatLon0.03_PT048H.grib2 2026-05-04 18:25 1.8M
20260504T12Z_MSC_CAPS_SpecificHumidity_AGL-120m_RLatLon0.03_PT048H.grib2 2026-05-04 18:25 1.5M
20260504T12Z_MSC_CAPS_SpecificHumidity_AGL-2m_RLatLon0.03_PT048H.grib2 2026-05-04 18:25 1.8M
20260504T12Z_MSC_CAPS_SpecificHumidity_AGL-40m_RLatLon0.03_PT048H.grib2 2026-05-04 18:25 1.5M
20260504T12Z_MSC_CAPS_SpecificHumidity_AGL-80m_RLatLon0.03_PT048H.grib2 2026-05-04 18:25 1.5M
20260504T12Z_MSC_CAPS_SpecificHumidity_IsbL-0050_RLatLon0.03_PT048H.grib2 2026-05-04 18:25 953K
20260504T12Z_MSC_CAPS_SpecificHumidity_IsbL-0100_RLatLon0.03_PT048H.grib2 2026-05-04 18:25 1.1M
20260504T12Z_MSC_CAPS_SpecificHumidity_IsbL-0150_RLatLon0.03_PT048H.grib2 2026-05-04 18:25 931K
20260504T12Z_MSC_CAPS_SpecificHumidity_IsbL-0175_RLatLon0.03_PT048H.grib2 2026-05-04 18:25 1.0M
20260504T12Z_MSC_CAPS_SpecificHumidity_IsbL-0200_RLatLon0.03_PT048H.grib2 2026-05-04 18:25 913K
20260504T12Z_MSC_CAPS_SpecificHumidity_IsbL-0225_RLatLon0.03_PT048H.grib2 2026-05-04 18:25 1.1M
20260504T12Z_MSC_CAPS_SpecificHumidity_IsbL-0250_RLatLon0.03_PT048H.grib2 2026-05-04 18:25 1.1M
20260504T12Z_MSC_CAPS_SpecificHumidity_IsbL-0275_RLatLon0.03_PT048H.grib2 2026-05-04 18:25 1.1M
20260504T12Z_MSC_CAPS_SpecificHumidity_IsbL-0300_RLatLon0.03_PT048H.grib2 2026-05-04 18:25 1.0M
20260504T12Z_MSC_CAPS_SpecificHumidity_IsbL-0350_RLatLon0.03_PT048H.grib2 2026-05-04 18:25 1.3M
20260504T12Z_MSC_CAPS_SpecificHumidity_IsbL-0400_RLatLon0.03_PT048H.grib2 2026-05-04 18:25 1.2M
20260504T12Z_MSC_CAPS_SpecificHumidity_IsbL-0450_RLatLon0.03_PT048H.grib2 2026-05-04 18:25 1.2M
20260504T12Z_MSC_CAPS_SpecificHumidity_IsbL-0500_RLatLon0.03_PT048H.grib2 2026-05-04 18:25 1.1M
20260504T12Z_MSC_CAPS_SpecificHumidity_IsbL-0550_RLatLon0.03_PT048H.grib2 2026-05-04 18:25 1.3M
20260504T12Z_MSC_CAPS_SpecificHumidity_IsbL-0600_RLatLon0.03_PT048H.grib2 2026-05-04 18:25 1.4M
20260504T12Z_MSC_CAPS_SpecificHumidity_IsbL-0650_RLatLon0.03_PT048H.grib2 2026-05-04 18:25 1.6M
20260504T12Z_MSC_CAPS_SpecificHumidity_IsbL-0700_RLatLon0.03_PT048H.grib2 2026-05-04 18:25 1.3M
20260504T12Z_MSC_CAPS_SpecificHumidity_IsbL-0750_RLatLon0.03_PT048H.grib2 2026-05-04 18:25 1.5M
20260504T12Z_MSC_CAPS_SpecificHumidity_IsbL-0800_RLatLon0.03_PT048H.grib2 2026-05-04 18:25 1.7M
20260504T12Z_MSC_CAPS_SpecificHumidity_IsbL-0850_RLatLon0.03_PT048H.grib2 2026-05-04 18:25 1.8M
20260504T12Z_MSC_CAPS_SpecificHumidity_IsbL-0875_RLatLon0.03_PT048H.grib2 2026-05-04 18:25 1.9M
20260504T12Z_MSC_CAPS_SpecificHumidity_IsbL-0900_RLatLon0.03_PT048H.grib2 2026-05-04 18:25 1.9M
20260504T12Z_MSC_CAPS_SpecificHumidity_IsbL-0925_RLatLon0.03_PT048H.grib2 2026-05-04 18:25 2.0M
20260504T12Z_MSC_CAPS_SpecificHumidity_IsbL-0950_RLatLon0.03_PT048H.grib2 2026-05-04 18:25 1.6M
20260504T12Z_MSC_CAPS_SpecificHumidity_IsbL-0970_RLatLon0.03_PT048H.grib2 2026-05-04 18:25 1.7M
20260504T12Z_MSC_CAPS_SpecificHumidity_IsbL-0985_RLatLon0.03_PT048H.grib2 2026-05-04 18:25 1.7M
20260504T12Z_MSC_CAPS_SpecificHumidity_IsbL-1000_RLatLon0.03_PT048H.grib2 2026-05-04 18:25 1.8M
20260504T12Z_MSC_CAPS_SpecificHumidity_IsbL-1015_RLatLon0.03_PT048H.grib2 2026-05-04 18:25 1.8M
20260504T12Z_MSC_CAPS_SpecificHumidity_Sfc_RLatLon0.03_PT048H.grib2 2026-05-04 18:25 2.1M
20260504T12Z_MSC_CAPS_StormRelativeHelicity_Sfc_RLatLon0.03_PT048H.grib2 2026-05-04 18:25 3.3M
20260504T12Z_MSC_CAPS_Thickness_IsbL-1000to0500_RLatLon0.03_PT048H.grib2 2026-05-04 18:25 427K
20260504T12Z_MSC_CAPS_TotalCloudCover_Sfc_RLatLon0.03_PT048H.grib2 2026-05-04 18:25 3.8M
20260504T12Z_MSC_CAPS_TurboclineDepth_Sfc_RLatLon0.03_PT048H.nc 2026-05-04 18:14 16M
20260504T12Z_MSC_CAPS_UpwardLongwaveRadiationFlux_NTAtm_RLatLon0.03_PT048H.grib2 2026-05-04 18:25 3.0M
20260504T12Z_MSC_CAPS_UpwardShortwaveRadiationFlux_NTAtm_RLatLon0.03_PT048H.grib2 2026-05-04 18:25 2.3M
20260504T12Z_MSC_CAPS_VerticalVelocity_IsbL-0250_RLatLon0.03_PT048H.grib2 2026-05-04 18:25 1.2M
20260504T12Z_MSC_CAPS_VerticalVelocity_IsbL-0500_RLatLon0.03_PT048H.grib2 2026-05-04 18:25 1.2M
20260504T12Z_MSC_CAPS_VerticalVelocity_IsbL-0700_RLatLon0.03_PT048H.grib2 2026-05-04 18:25 1.0M
20260504T12Z_MSC_CAPS_VerticalVelocity_IsbL-0850_RLatLon0.03_PT048H.grib2 2026-05-04 18:25 1.2M
20260504T12Z_MSC_CAPS_VerticalVelocity_IsbL-1000_RLatLon0.03_PT048H.grib2 2026-05-04 18:25 1.5M
20260504T12Z_MSC_CAPS_WindDir_AGL-10m_RLatLon0.03_PT048H.grib2 2026-05-04 18:25 2.4M
20260504T12Z_MSC_CAPS_WindDir_AGL-120m_RLatLon0.03_PT048H.grib2 2026-05-04 18:25 1.3M
20260504T12Z_MSC_CAPS_WindDir_AGL-40m_RLatLon0.03_PT048H.grib2 2026-05-04 18:25 1.4M
20260504T12Z_MSC_CAPS_WindDir_AGL-80m_RLatLon0.03_PT048H.grib2 2026-05-04 18:25 1.3M
20260504T12Z_MSC_CAPS_WindDir_IsbL-0050_RLatLon0.03_PT048H.grib2 2026-05-04 18:25 1.1M
20260504T12Z_MSC_CAPS_WindDir_IsbL-0100_RLatLon0.03_PT048H.grib2 2026-05-04 18:25 1.0M
20260504T12Z_MSC_CAPS_WindDir_IsbL-0150_RLatLon0.03_PT048H.grib2 2026-05-04 18:25 1.0M
20260504T12Z_MSC_CAPS_WindDir_IsbL-0175_RLatLon0.03_PT048H.grib2 2026-05-04 18:25 1.0M
20260504T12Z_MSC_CAPS_WindDir_IsbL-0200_RLatLon0.03_PT048H.grib2 2026-05-04 18:25 1.2M
20260504T12Z_MSC_CAPS_WindDir_IsbL-0225_RLatLon0.03_PT048H.grib2 2026-05-04 18:25 1.1M
20260504T12Z_MSC_CAPS_WindDir_IsbL-0250_RLatLon0.03_PT048H.grib2 2026-05-04 18:25 1.1M
20260504T12Z_MSC_CAPS_WindDir_IsbL-0275_RLatLon0.03_PT048H.grib2 2026-05-04 18:25 1.1M
20260504T12Z_MSC_CAPS_WindDir_IsbL-0300_RLatLon0.03_PT048H.grib2 2026-05-04 18:25 1.1M
20260504T12Z_MSC_CAPS_WindDir_IsbL-0350_RLatLon0.03_PT048H.grib2 2026-05-04 18:25 1.1M
20260504T12Z_MSC_CAPS_WindDir_IsbL-0400_RLatLon0.03_PT048H.grib2 2026-05-04 18:25 1.2M
20260504T12Z_MSC_CAPS_WindDir_IsbL-0450_RLatLon0.03_PT048H.grib2 2026-05-04 18:25 1.2M
20260504T12Z_MSC_CAPS_WindDir_IsbL-0500_RLatLon0.03_PT048H.grib2 2026-05-04 18:25 1.3M
20260504T12Z_MSC_CAPS_WindDir_IsbL-0550_RLatLon0.03_PT048H.grib2 2026-05-04 18:25 1.3M
20260504T12Z_MSC_CAPS_WindDir_IsbL-0600_RLatLon0.03_PT048H.grib2 2026-05-04 18:25 1.4M
20260504T12Z_MSC_CAPS_WindDir_IsbL-0650_RLatLon0.03_PT048H.grib2 2026-05-04 18:25 1.4M
20260504T12Z_MSC_CAPS_WindDir_IsbL-0700_RLatLon0.03_PT048H.grib2 2026-05-04 18:25 1.5M
20260504T12Z_MSC_CAPS_WindDir_IsbL-0750_RLatLon0.03_PT048H.grib2 2026-05-04 18:25 1.6M
20260504T12Z_MSC_CAPS_WindDir_IsbL-0800_RLatLon0.03_PT048H.grib2 2026-05-04 18:25 1.7M
20260504T12Z_MSC_CAPS_WindDir_IsbL-0850_RLatLon0.03_PT048H.grib2 2026-05-04 18:25 1.8M
20260504T12Z_MSC_CAPS_WindDir_IsbL-0875_RLatLon0.03_PT048H.grib2 2026-05-04 18:25 1.9M
20260504T12Z_MSC_CAPS_WindDir_IsbL-0900_RLatLon0.03_PT048H.grib2 2026-05-04 18:25 1.9M
20260504T12Z_MSC_CAPS_WindDir_IsbL-0925_RLatLon0.03_PT048H.grib2 2026-05-04 18:25 2.0M
20260504T12Z_MSC_CAPS_WindDir_IsbL-0950_RLatLon0.03_PT048H.grib2 2026-05-04 18:25 2.1M
20260504T12Z_MSC_CAPS_WindDir_IsbL-0970_RLatLon0.03_PT048H.grib2 2026-05-04 18:25 2.2M
20260504T12Z_MSC_CAPS_WindDir_IsbL-0985_RLatLon0.03_PT048H.grib2 2026-05-04 18:25 2.2M
20260504T12Z_MSC_CAPS_WindDir_IsbL-1000_RLatLon0.03_PT048H.grib2 2026-05-04 18:25 2.3M
20260504T12Z_MSC_CAPS_WindDir_IsbL-1015_RLatLon0.03_PT048H.grib2 2026-05-04 18:25 2.4M
20260504T12Z_MSC_CAPS_WindGust-Max_AGL-10m_RLatLon0.03_PT048H.grib2 2026-05-04 18:25 2.6M
20260504T12Z_MSC_CAPS_WindGust-Min_AGL-10m_RLatLon0.03_PT048H.grib2 2026-05-04 18:25 2.4M
20260504T12Z_MSC_CAPS_WindGust_AGL-10m_RLatLon0.03_PT048H.grib2 2026-05-04 18:25 2.5M
20260504T12Z_MSC_CAPS_WindSpeed_AGL-10m_RLatLon0.03_PT048H.grib2 2026-05-04 18:25 2.2M
20260504T12Z_MSC_CAPS_WindSpeed_AGL-120m_RLatLon0.03_PT048H.grib2 2026-05-04 18:25 1.2M
20260504T12Z_MSC_CAPS_WindSpeed_AGL-40m_RLatLon0.03_PT048H.grib2 2026-05-04 18:25 1.6M
20260504T12Z_MSC_CAPS_WindSpeed_AGL-80m_RLatLon0.03_PT048H.grib2 2026-05-04 18:25 1.2M
20260504T12Z_MSC_CAPS_WindSpeed_IsbL-0050_RLatLon0.03_PT048H.grib2 2026-05-04 18:25 957K
20260504T12Z_MSC_CAPS_WindSpeed_IsbL-0100_RLatLon0.03_PT048H.grib2 2026-05-04 18:25 1.3M
20260504T12Z_MSC_CAPS_WindSpeed_IsbL-0150_RLatLon0.03_PT048H.grib2 2026-05-04 18:25 1.0M
20260504T12Z_MSC_CAPS_WindSpeed_IsbL-0175_RLatLon0.03_PT048H.grib2 2026-05-04 18:25 1.1M
20260504T12Z_MSC_CAPS_WindSpeed_IsbL-0200_RLatLon0.03_PT048H.grib2 2026-05-04 18:25 1.2M
20260504T12Z_MSC_CAPS_WindSpeed_IsbL-0225_RLatLon0.03_PT048H.grib2 2026-05-04 18:25 1.3M
20260504T12Z_MSC_CAPS_WindSpeed_IsbL-0250_RLatLon0.03_PT048H.grib2 2026-05-04 18:25 1.0M
20260504T12Z_MSC_CAPS_WindSpeed_IsbL-0275_RLatLon0.03_PT048H.grib2 2026-05-04 18:25 1.0M
20260504T12Z_MSC_CAPS_WindSpeed_IsbL-0300_RLatLon0.03_PT048H.grib2 2026-05-04 18:25 1.0M
20260504T12Z_MSC_CAPS_WindSpeed_IsbL-0350_RLatLon0.03_PT048H.grib2 2026-05-04 18:25 1.0M
20260504T12Z_MSC_CAPS_WindSpeed_IsbL-0400_RLatLon0.03_PT048H.grib2 2026-05-04 18:25 1.1M
20260504T12Z_MSC_CAPS_WindSpeed_IsbL-0450_RLatLon0.03_PT048H.grib2 2026-05-04 18:25 1.0M
20260504T12Z_MSC_CAPS_WindSpeed_IsbL-0500_RLatLon0.03_PT048H.grib2 2026-05-04 18:25 1.0M
20260504T12Z_MSC_CAPS_WindSpeed_IsbL-0550_RLatLon0.03_PT048H.grib2 2026-05-04 18:25 1.4M
20260504T12Z_MSC_CAPS_WindSpeed_IsbL-0600_RLatLon0.03_PT048H.grib2 2026-05-04 18:25 1.4M
20260504T12Z_MSC_CAPS_WindSpeed_IsbL-0650_RLatLon0.03_PT048H.grib2 2026-05-04 18:25 1.4M
20260504T12Z_MSC_CAPS_WindSpeed_IsbL-0700_RLatLon0.03_PT048H.grib2 2026-05-04 18:25 1.4M
20260504T12Z_MSC_CAPS_WindSpeed_IsbL-0750_RLatLon0.03_PT048H.grib2 2026-05-04 18:25 1.6M
20260504T12Z_MSC_CAPS_WindSpeed_IsbL-0800_RLatLon0.03_PT048H.grib2 2026-05-04 18:25 1.7M
20260504T12Z_MSC_CAPS_WindSpeed_IsbL-0850_RLatLon0.03_PT048H.grib2 2026-05-04 18:25 1.8M
20260504T12Z_MSC_CAPS_WindSpeed_IsbL-0875_RLatLon0.03_PT048H.grib2 2026-05-04 18:25 1.8M
20260504T12Z_MSC_CAPS_WindSpeed_IsbL-0900_RLatLon0.03_PT048H.grib2 2026-05-04 18:25 1.9M
20260504T12Z_MSC_CAPS_WindSpeed_IsbL-0925_RLatLon0.03_PT048H.grib2 2026-05-04 18:25 2.0M
20260504T12Z_MSC_CAPS_WindSpeed_IsbL-0950_RLatLon0.03_PT048H.grib2 2026-05-04 18:25 2.0M
20260504T12Z_MSC_CAPS_WindSpeed_IsbL-0970_RLatLon0.03_PT048H.grib2 2026-05-04 18:25 2.0M
20260504T12Z_MSC_CAPS_WindSpeed_IsbL-0985_RLatLon0.03_PT048H.grib2 2026-05-04 18:25 2.1M
20260504T12Z_MSC_CAPS_WindSpeed_IsbL-1000_RLatLon0.03_PT048H.grib2 2026-05-04 18:25 2.1M
20260504T12Z_MSC_CAPS_WindSpeed_IsbL-1015_RLatLon0.03_PT048H.grib2 2026-05-04 18:25 2.1M
20260504T12Z_MSC_CAPS_WindU_AGL-10m_RLatLon0.03_PT048H.grib2 2026-05-04 18:25 2.1M
20260504T12Z_MSC_CAPS_WindU_AGL-120m_RLatLon0.03_PT048H.grib2 2026-05-04 18:25 1.2M
20260504T12Z_MSC_CAPS_WindU_AGL-40m_RLatLon0.03_PT048H.grib2 2026-05-04 18:25 1.3M
20260504T12Z_MSC_CAPS_WindU_AGL-80m_RLatLon0.03_PT048H.grib2 2026-05-04 18:25 1.2M
20260504T12Z_MSC_CAPS_WindU_IsbL-0050_RLatLon0.03_PT048H.grib2 2026-05-04 18:25 944K
20260504T12Z_MSC_CAPS_WindU_IsbL-0100_RLatLon0.03_PT048H.grib2 2026-05-04 18:25 966K
20260504T12Z_MSC_CAPS_WindU_IsbL-0150_RLatLon0.03_PT048H.grib2 2026-05-04 18:25 928K
20260504T12Z_MSC_CAPS_WindU_IsbL-0175_RLatLon0.03_PT048H.grib2 2026-05-04 18:25 737K
20260504T12Z_MSC_CAPS_WindU_IsbL-0200_RLatLon0.03_PT048H.grib2 2026-05-04 18:25 889K
20260504T12Z_MSC_CAPS_WindU_IsbL-0225_RLatLon0.03_PT048H.grib2 2026-05-04 18:25 908K
20260504T12Z_MSC_CAPS_WindU_IsbL-0250_RLatLon0.03_PT048H.grib2 2026-05-04 18:25 925K
20260504T12Z_MSC_CAPS_WindU_IsbL-0275_RLatLon0.03_PT048H.grib2 2026-05-04 18:25 927K
20260504T12Z_MSC_CAPS_WindU_IsbL-0300_RLatLon0.03_PT048H.grib2 2026-05-04 18:25 724K
20260504T12Z_MSC_CAPS_WindU_IsbL-0350_RLatLon0.03_PT048H.grib2 2026-05-04 18:25 952K
20260504T12Z_MSC_CAPS_WindU_IsbL-0400_RLatLon0.03_PT048H.grib2 2026-05-04 18:25 962K
20260504T12Z_MSC_CAPS_WindU_IsbL-0450_RLatLon0.03_PT048H.grib2 2026-05-04 18:25 1.0M
20260504T12Z_MSC_CAPS_WindU_IsbL-0500_RLatLon0.03_PT048H.grib2 2026-05-04 18:25 1.0M
20260504T12Z_MSC_CAPS_WindU_IsbL-0550_RLatLon0.03_PT048H.grib2 2026-05-04 18:25 928K
20260504T12Z_MSC_CAPS_WindU_IsbL-0600_RLatLon0.03_PT048H.grib2 2026-05-04 18:25 958K
20260504T12Z_MSC_CAPS_WindU_IsbL-0650_RLatLon0.03_PT048H.grib2 2026-05-04 18:25 1.0M
20260504T12Z_MSC_CAPS_WindU_IsbL-0700_RLatLon0.03_PT048H.grib2 2026-05-04 18:25 1.0M
20260504T12Z_MSC_CAPS_WindU_IsbL-0750_RLatLon0.03_PT048H.grib2 2026-05-04 18:25 1.1M
20260504T12Z_MSC_CAPS_WindU_IsbL-0800_RLatLon0.03_PT048H.grib2 2026-05-04 18:25 1.2M
20260504T12Z_MSC_CAPS_WindU_IsbL-0850_RLatLon0.03_PT048H.grib2 2026-05-04 18:25 1.3M
20260504T12Z_MSC_CAPS_WindU_IsbL-0875_RLatLon0.03_PT048H.grib2 2026-05-04 18:25 1.3M
20260504T12Z_MSC_CAPS_WindU_IsbL-0900_RLatLon0.03_PT048H.grib2 2026-05-04 18:25 1.3M
20260504T12Z_MSC_CAPS_WindU_IsbL-0925_RLatLon0.03_PT048H.grib2 2026-05-04 18:25 1.4M
20260504T12Z_MSC_CAPS_WindU_IsbL-0950_RLatLon0.03_PT048H.grib2 2026-05-04 18:25 1.4M
20260504T12Z_MSC_CAPS_WindU_IsbL-0970_RLatLon0.03_PT048H.grib2 2026-05-04 18:25 1.5M
20260504T12Z_MSC_CAPS_WindU_IsbL-0985_RLatLon0.03_PT048H.grib2 2026-05-04 18:25 1.5M
20260504T12Z_MSC_CAPS_WindU_IsbL-1000_RLatLon0.03_PT048H.grib2 2026-05-04 18:25 1.9M
20260504T12Z_MSC_CAPS_WindU_IsbL-1015_RLatLon0.03_PT048H.grib2 2026-05-04 18:25 2.1M
20260504T12Z_MSC_CAPS_WindV_AGL-10m_RLatLon0.03_PT048H.grib2 2026-05-04 18:25 2.1M
20260504T12Z_MSC_CAPS_WindV_AGL-120m_RLatLon0.03_PT048H.grib2 2026-05-04 18:25 1.2M
20260504T12Z_MSC_CAPS_WindV_AGL-40m_RLatLon0.03_PT048H.grib2 2026-05-04 18:25 1.3M
20260504T12Z_MSC_CAPS_WindV_AGL-80m_RLatLon0.03_PT048H.grib2 2026-05-04 18:25 1.2M
20260504T12Z_MSC_CAPS_WindV_IsbL-0050_RLatLon0.03_PT048H.grib2 2026-05-04 18:25 771K
20260504T12Z_MSC_CAPS_WindV_IsbL-0100_RLatLon0.03_PT048H.grib2 2026-05-04 18:25 793K
20260504T12Z_MSC_CAPS_WindV_IsbL-0150_RLatLon0.03_PT048H.grib2 2026-05-04 18:25 914K
20260504T12Z_MSC_CAPS_WindV_IsbL-0175_RLatLon0.03_PT048H.grib2 2026-05-04 18:25 727K
20260504T12Z_MSC_CAPS_WindV_IsbL-0200_RLatLon0.03_PT048H.grib2 2026-05-04 18:25 877K
20260504T12Z_MSC_CAPS_WindV_IsbL-0225_RLatLon0.03_PT048H.grib2 2026-05-04 18:25 896K
20260504T12Z_MSC_CAPS_WindV_IsbL-0250_RLatLon0.03_PT048H.grib2 2026-05-04 18:25 703K
20260504T12Z_MSC_CAPS_WindV_IsbL-0275_RLatLon0.03_PT048H.grib2 2026-05-04 18:25 709K
20260504T12Z_MSC_CAPS_WindV_IsbL-0300_RLatLon0.03_PT048H.grib2 2026-05-04 18:25 716K
20260504T12Z_MSC_CAPS_WindV_IsbL-0350_RLatLon0.03_PT048H.grib2 2026-05-04 18:25 730K
20260504T12Z_MSC_CAPS_WindV_IsbL-0400_RLatLon0.03_PT048H.grib2 2026-05-04 18:25 737K
20260504T12Z_MSC_CAPS_WindV_IsbL-0450_RLatLon0.03_PT048H.grib2 2026-05-04 18:25 1.0M
20260504T12Z_MSC_CAPS_WindV_IsbL-0500_RLatLon0.03_PT048H.grib2 2026-05-04 18:25 1.0M
20260504T12Z_MSC_CAPS_WindV_IsbL-0550_RLatLon0.03_PT048H.grib2 2026-05-04 18:25 1.0M
20260504T12Z_MSC_CAPS_WindV_IsbL-0600_RLatLon0.03_PT048H.grib2 2026-05-04 18:25 1.0M
20260504T12Z_MSC_CAPS_WindV_IsbL-0650_RLatLon0.03_PT048H.grib2 2026-05-04 18:25 1.0M
20260504T12Z_MSC_CAPS_WindV_IsbL-0700_RLatLon0.03_PT048H.grib2 2026-05-04 18:25 1.0M
20260504T12Z_MSC_CAPS_WindV_IsbL-0750_RLatLon0.03_PT048H.grib2 2026-05-04 18:25 1.1M
20260504T12Z_MSC_CAPS_WindV_IsbL-0800_RLatLon0.03_PT048H.grib2 2026-05-04 18:25 1.2M
20260504T12Z_MSC_CAPS_WindV_IsbL-0850_RLatLon0.03_PT048H.grib2 2026-05-04 18:25 1.3M
20260504T12Z_MSC_CAPS_WindV_IsbL-0875_RLatLon0.03_PT048H.grib2 2026-05-04 18:25 1.3M
20260504T12Z_MSC_CAPS_WindV_IsbL-0900_RLatLon0.03_PT048H.grib2 2026-05-04 18:25 1.3M
20260504T12Z_MSC_CAPS_WindV_IsbL-0925_RLatLon0.03_PT048H.grib2 2026-05-04 18:25 1.4M
20260504T12Z_MSC_CAPS_WindV_IsbL-0950_RLatLon0.03_PT048H.grib2 2026-05-04 18:25 1.4M
20260504T12Z_MSC_CAPS_WindV_IsbL-0970_RLatLon0.03_PT048H.grib2 2026-05-04 18:25 1.5M
20260504T12Z_MSC_CAPS_WindV_IsbL-0985_RLatLon0.03_PT048H.grib2 2026-05-04 18:25 1.5M
20260504T12Z_MSC_CAPS_WindV_IsbL-1000_RLatLon0.03_PT048H.grib2 2026-05-04 18:25 1.5M
20260504T12Z_MSC_CAPS_WindV_IsbL-1015_RLatLon0.03_PT048H.grib2 2026-05-04 18:25 1.9M